Content
SEND FEEDBACK

Daily
Averages
Monthly
Summary
United States of America

LAKE GEORGE, NEW YORK


Home > North America > United States > New York
Elevation: 321 feet     Latitude: 43 21N     Longitude: 073 37W

WEATHER
 
SELECT A DAY
Number of Records: 216,842;   Date Range: 1/1/95 - 10/23/14
 
SHARE

PRINT THIS DATA

[ ← Previous Day ]
WEATHER ALMANAC - FEBRUARY 14, 2013
[ Next Day → ]
[ °C ]   °F
Weather ElementAverageHighLow
Temperature28.6 °F37 °F (2:53 pm)17.1 °F (7:53 am)
Dewpoint19.5 °F23 °F (8:53 pm)14 °F (7:53 am)
Humidity70.3 %92 % (4:53 am)48 % (12:53 pm)
Barometer29.91 in29.97 in (5:53 pm)29.79 in (1:53 am)
Wind Speed2.3 mph9.2 mph (2:53 pm)
Weather ElementAverage
Visibility9.8 mi
Wind DirectionENE (77.4 °)

Weather ElementTotal
Precipitation---
Heating Degree Days38 (Base 65)
Averaged from 23 records on February 14, 2013
WEATHER CONDITIONS BREAKOUT
WIND DIRECTION BREAKOUT
WEATHER BY HOUR - FEBRUARY 14, 2013
[ °C ]   °F
Local TimeTemperatureDewpointHumidityBarometerVisibilityWind DirectionWind SpeedGust SpeedPrecipitationEventsConditions
1:53 AM25.0 °F19.0 °F78 %29.79 in10.0 miNW (320°)4.6 mphClear
2:53 AM19.9 °F16.0 °F85 %29.81 in10.0 miCalmPartly Cloudy
3:53 AM18.0 °F15.1 °F88 %29.83 in10.0 miCalmScattered Clouds
4:53 AM18.0 °F16.0 °F92 %29.85 in10.0 miCalmMostly Cloudy
5:53 AM21.9 °F17.1 °F82 %29.86 in10.0 miNorth (360°)3.5 mphMostly Cloudy
6:53 AM18.0 °F16.0 °F92 %29.88 in10.0 miCalmOvercast
7:53 AM17.1 °F14.0 °F88 %29.91 in9.0 miCalmClear
8:53 AM27.0 °F19.9 °F75 %29.93 in10.0 miCalmClear
9:53 AM32.0 °F19.9 °F61 %29.94 in10.0 miCalmClear
10:53 AM34.0 °F19.9 °F56 %29.96 in10.0 miSSE (160°)4.6 mphMostly Cloudy
11:53 AM35.1 °F19.0 °F52 %29.94 in10.0 miCalmOvercast
12:53 PM36.0 °F18.0 °F48 %29.92 in10.0 miCalmClear
1:53 PM36.0 °F18.0 °F48 %29.91 in10.0 miVariable3.5 mphClear
2:53 PM37.0 °F19.9 °F50 %29.91 in10.0 miESE (110°)9.2 mphClear
3:53 PM37.0 °F21.0 °F52 %29.92 in10.0 miSouth (170°)9.2 mphClear
4:53 PM36.0 °F21.0 °F55 %29.94 in10.0 miSouth (190°)9.2 mphClear
5:53 PM32.0 °F21.9 °F66 %29.97 in10.0 miSSE (160°)4.6 mphClear
6:53 PM32.0 °F21.9 °F66 %29.97 in9.0 miCalmOvercast
7:53 PM30.9 °F21.9 °F69 %29.96 in10.0 miCalmOvercast
8:53 PM30.0 °F23.0 °F75 %29.96 in10.0 miNW (310°)3.5 mphOvercast
9:53 PM28.9 °F23.0 °F78 %29.95 in9.0 miCalmMostly Cloudy
10:53 PM28.0 °F23.0 °F81 %29.94 in10.0 miCalmOvercast
11:53 PM28.0 °F23.0 °F81 %29.95 in9.0 miCalmOvercast
Hourly data recorded from KGFL, located miles away from Lake George, New York







STORIES FROM OUR PARTNERS